Weather History for San Diego Brown, CA

Change the Weather History Date:

Thursday, February 21, 2013

  Actual Average Record
Temperature  
Mean Temperature 50 °F -  
Max Temperature 57 °F 61 °F 88 °F (2002)
Min Temperature 42 °F 44 °F 36 °F (1955)
Degree Days  
Heating Degree Days 16    
Moisture  
Dew Point 41 °F    
Average Humidity 72    
Maximum Humidity 86    
Minimum Humidity 62    
Precipitation  
Precipitation 0.00 in - - ()
Sea Level Pressure  
Sea Level Pressure 30.03 in    
Wind  
Wind Speed 9 mph (South)    
Max Wind Speed 15 mph    
Max Gust Speed 20 mph    
Visibility 10 miles    
Events      
Averages and records for this station are not official NWS values.
T = Trace of Precipitation, MM = Missing Value Source: NWS Daily Summary

Daily Weather History Graph

Daily Weather History Graph

Search for Another Location

Airport:

Trip Planner

Search our weather history database for the weather conditions in past years. The results will help you decide how hot, cold, wet, or windy it might be!

Date:

Astronomy

Feb. 21, 2013 Rise Set
Actual Time 6:24 AM PST 5:39 PM PST
Civil Twilight 5:59 AM PST 6:04 PM PST
Nautical Twilight 5:30 AM PST 6:32 PM PST
Astronomical Twilight 5:02 AM PST 7:01 PM PST
Moon 2:06 PM PST (2/21) 3:23 AM PST (2/21)
Length of Visible Light 12h 04m
Length of Day
11h 14m
Waxing Gibbous, 84% of the Moon is Illuminated
Feb 21
Waxing Gibbous
Feb 25
Full
Mar 4
Last Quarter
Mar 11
New
Mar 19
First Quarter

Hourly Weather History & Observations

Time (PST) Temp. Windchill Dew Point Humidity Pressure Visibility Wind Dir Wind Speed Gust Speed Precip Events Conditions
12:53 AM 45.0 °F 39.7 °F 37.9 °F 76% 30.04 in 10.0 mi ESE 10.4 mph - N/A   Mostly Cloudy
1:53 AM 46.9 °F - 37.9 °F 71% 30.03 in 10.0 mi SE 10.4 mph - N/A   Overcast
2:53 AM 45.0 °F 39.7 °F 37.0 °F 74% 30.02 in 10.0 mi SSE 10.4 mph - N/A   Mostly Cloudy
3:53 AM 44.1 °F 38.1 °F 36.0 °F 73% 30.02 in 10.0 mi SE 11.5 mph - N/A   Scattered Clouds
4:53 AM 43.0 °F 37.7 °F 36.0 °F 76% 30.02 in 10.0 mi SSE 9.2 mph - N/A   Partly Cloudy
5:28 AM 44.6 °F 40.2 °F 35.6 °F 71% 30.02 in 10.0 mi SSE 8.1 mph - N/A   Overcast
5:37 AM 42.8 °F 38.6 °F 35.6 °F 76% 30.03 in 10.0 mi SSE 6.9 mph - N/A   Overcast
5:53 AM 43.0 °F 38.2 °F 36.0 °F 76% 30.04 in 10.0 mi SSE 8.1 mph - N/A   Scattered Clouds
6:53 AM 44.1 °F 38.6 °F 37.0 °F 76% 30.04 in 10.0 mi SE 10.4 mph - N/A   Mostly Cloudy
7:53 AM 48.9 °F - 39.0 °F 69% 30.06 in 10.0 mi SSE 9.2 mph - N/A   Mostly Cloudy
8:53 AM 50.0 °F - 39.9 °F 68% 30.05 in 10.0 mi SSE 10.4 mph - N/A   Scattered Clouds
9:33 AM 53.6 °F - 42.8 °F 67% 30.06 in 10.0 mi SSE 9.2 mph - N/A   Overcast
9:53 AM 53.1 °F - 43.0 °F 69% 30.05 in 10.0 mi South 8.1 mph - N/A   Overcast
10:33 AM 55.4 °F - 44.6 °F 67% 30.05 in 10.0 mi SSW 9.2 mph - N/A   Mostly Cloudy
10:53 AM 54.0 °F - 43.0 °F 66% 30.04 in 10.0 mi SW 15.0 mph - N/A   Mostly Cloudy
11:53 AM 55.0 °F - 42.1 °F 62% 30.04 in 10.0 mi WSW 11.5 mph 19.6 mph N/A   Scattered Clouds
12:53 PM 57.0 °F - 44.1 °F 62% 30.00 in 10.0 mi SW 10.4 mph - N/A   Clear
1:53 PM 54.0 °F - 44.1 °F 69% 29.99 in 10.0 mi WSW 11.5 mph - N/A   Mostly Cloudy
2:05 PM 53.6 °F - 44.6 °F 72% 29.98 in 10.0 mi West 13.8 mph - N/A   Overcast
2:34 PM 55.4 °F - 44.6 °F 67% 29.98 in 10.0 mi WSW 11.5 mph - N/A   Mostly Cloudy
2:41 PM 55.4 °F - 42.8 °F 63% 29.98 in 10.0 mi WSW 12.7 mph 19.6 mph N/A   Scattered Clouds
2:53 PM 55.9 °F - 44.1 °F 64% 29.98 in 10.0 mi WSW 12.7 mph - N/A   Mostly Cloudy
3:53 PM 53.1 °F - 42.1 °F 66% 29.99 in 10.0 mi WSW 6.9 mph - N/A   Scattered Clouds
4:53 PM 53.1 °F - 43.0 °F 69% 30.00 in 10.0 mi WNW 4.6 mph - N/A   Mostly Cloudy
5:53 PM 48.9 °F - 43.0 °F 80% 30.01 in 10.0 mi Calm Calm - N/A   Scattered Clouds
6:53 PM 48.0 °F - 42.1 °F 80% 30.04 in 10.0 mi Calm Calm - N/A   Clear
7:53 PM 46.9 °F - 41.0 °F 80% 30.06 in 10.0 mi Calm Calm - N/A   Clear
8:53 PM 46.0 °F 43.1 °F 41.0 °F 83% 30.09 in 10.0 mi ENE 5.8 mph - N/A   Clear
9:53 PM 45.0 °F 41.8 °F 39.9 °F 82% 30.10 in 10.0 mi NE 5.8 mph - N/A   Clear
10:53 PM 44.1 °F 42.5 °F 39.9 °F 85% 30.10 in 10.0 mi NE 3.5 mph - N/A   Clear
11:53 PM 43.0 °F 41.3 °F 39.0 °F 86% 30.11 in 10.0 mi East 3.5 mph - N/A   Clear